{"data":{"norad_id":40697,"epoch":"2026-05-25T04:59:05.497728Z","epoch_age_seconds":63836,"freshness":"FRESH","line1":"1 40697U 15028A   26145.20770252 -.00000119  00000+0 -28915-4 0  9996","line2":"2 40697  98.5681 220.3847 0001075  85.8110 274.3195 14.30815553570443","mean_motion":14.30815553,"eccentricity":0.0001075,"inclination_deg":98.5681,"raan_deg":220.3847,"arg_perigee_deg":85.811,"mean_anomaly_deg":274.3195,"bstar":-2.8915e-5,"rev_number":57044,"period_min":100.64190293296,"perigee_km":788.23558916934,"apogee_km":789.77652492661,"semimajor_km":7167.143057048,"source":"CELESTRAK","updated_at":"2026-05-25T13:38:12.788543Z"}}